ORBCOMM FM 17

Satellite information

Favourite Embed

Satellite Type and Status

PAYLOADIN ORBIT

Key statistics

Satellite ORBCOMM FM 17 at a glance.

Uptime

9834

Days in orbit

Revolutions

≈ 14.4

Per day

Orbit

LEO

Low Earth Orbit

Inclination

45.0

Latest

Satellite identification and parameters

Extended collection of information and parameters for ORBCOMM FM 17.

Object identification

Identified? True

Debris? False

Object name: ORBCOMM FM 17

International designator: 1998-046A

Object number (NORAD): 25413

Object ID (CCSDS): 25413

Country: ORBITAL TELECOMMUNICATIONS SATELLITE (GLOBALSTAR) (ORB)

Current information (Y/N): Y

RCS size: MEDIUM

Orbital parameters

Period: 100.34 minutes

Inclination: 44.9927 deg

SMA: 7152.816 km

Apoapsis: 778.335 km

Periapsis: 771.027 km

RAAN: 175.1286 deg

Eccentricy: 0.0005108

Argument of periapsis: 295.6332 deg

Mean anomaly: 64.3987 deg

Mean motion: 14.35116578 rev/day

Mean motion (dot): 0.00000486 rev/day2

B* drag term: 0.00021762 1/REarth

Two-line elements (TLE)

Creation date: July 4, 2025, 10:36 p.m.

Reference frame: TEME

Reference center: EARTH

Epoch: July 4, 2025, 3:54 p.m. UTC

TLE line 0: 0 ORBCOMM FM 17

TLE line 1: 1 25413U 98046A 25185.66265913 .00000486 00000-0 21762-3 0 9990

TLE line 2: 2 25413 44.9927 175.1286 0005108 295.6332 64.3987 14.35116578405856

Live tracking on map

Real-time ground track for satellite ORBCOMM FM 17.

In-orbit conjunctions

There are no conjunctions computed for ORBCOMM FM 17, at the moment. Check back to stay up to date, as we update our databases every day.

Go to all conjunctions

Associated space launch

ORBCOMM FM 17 was lifted into orbit during the mission ‘Pegasus XL HAPS | Orbcomm-B1 - B8’, on board a Pegasus XL HAPS space rocket.

The launch took place on Aug. 2, 1998, 4:24 p.m. from Wallops Flight Facility.

For more information about the launch, click the button.

Launch to space Pegasus XL HAPS | Orbcomm-B1 - B8
Pegasus XL HAPS | Orbcomm-B1 - B8

Agency: N/A

Status: Launch Successful

Launch date: Aug. 2, 1998, 4:24 p.m. UTC

Rocket: Pegasus XL HAPS

Launch pad: Wallops Flight Facility

Location: Air launch to orbit

...

Latest news about this satellite

There are no fresh news available about this satellite. Check back as we update our databases every day.


Newsletter sign-up

Weekly statistics, charts and insights to help you stay on top of the space industry.